User: anonymous
Location: Caltech
(34.1382°N, 118.1253°W)
Time: 20:15:08
(UTC-07:00)
Language:

Cosmos 1606 - Orbit

View from above orbital plane
View from above orbital plane
View from above satellite
View from above satellite

Ground track
Ground track

The orbit data is extracted from the following two-line orbital elements,

1 15369U 84111A   14109.18575478  .00007428  00000-0  45564-3 0  5049
2 15369 082.5334 174.9955 0017924 292.1654 067.7673 15.09858401605753
Epoch (UTC): 19 April 2014 04:27:29
Eccentricity: 0.0017924
inclination: 82.5334°
perigee height: 524 km
apogee height: 549 km
right ascension of ascending node: 174.9955°
argument of perigee: 292.1654°
revolutions per day: 15.09858401
mean anomaly at epoch: 67.7673°
orbit number at epoch: 60575

The dashed part of the orbit path shows where the satellite is in the earth's shadow,  

DLR